Temp
89 88 86 84 81 75 71 66 64 62 60 60 60 59 62 62 61 62 60 63 61 62 68 66 63 64 68 67 64 65 64 60
86 88 87 84 81 74 70 65 64 61 57 55 56 59 61 63 65 63 59 62 63 66 68 65 66 67 67 66 64 62 57 60
87 86 88 83 82 77 72 68 65 63 61 58 60 65 66 66 66 64 64 64 62 63 68 65 66 67 65 64 62 61 60 60
83 83 81 80 80 79 74 71 66 66 64 59 59 61 65 66 67 66 65 65 64 63 66 66 65 66 63 63 62 60 55 59
79 80 79 79 80 80 78 72 68 65 65 60 57 58 59 66 66 68 67 65 64 64 62 65 63 65 64 61 62 61 60 56
75 77 80 81 81 81 79 75 68 65 63 60 59 59 62 68 68 66 65 64 63 64 61 63 61 62 61 62 61 61 62 62
74 74 74 75 77 76 79 77 69 64 61 59 58 58 59 59 64 64 63 62 62 62 62 62 61 62 62 61 61 61 63 63
69 70 70 70 70 70 72 73 68 59 57 56 56 56 56 57 58 61 61 60 60 59 59 61 61 62 62 62 62 61 62 62
69 69 69 70 70 70 69 69 64 59 55 55 55 55 54 54 56 56 58 58 59 59 59 60 60 61 59 60 59 61 61 61
69 70 70 71 70 69 69 68 65 61 55 54 54 53 52 51 52 52 52 55 56 58 57 58 59 59 58 58 57 56 57 57
66 67 68 70 69 69 68 67 65 62 58 53 52 52 50 49 49 48 49 50 53 55 55 57 56 55 56 55 55 55 53 55
64 65 67 69 70 66 63 65 64 63 59 52 50 49 48 47 47 47 48 49 50 51 52 54 51 53 53 52 52 50 50 54
63 64 66 67 68 70 69 66 64 58 60 53 50 47 45 44 44 44 45 46 48 48 51 52 51 50 51 49 49 50 51 49
61 63 65 65 67 66 63 58 59 58 56 49 44 43 41 40 41 42 43 44 45 45 45 47 48 45 45 44 48 50 49 45
62 63 64 66 65 62 62 60 56 53 50 44 38 39 40 38 39 40 40 40 39 37 36 36 36 37 39 41 45 39 36 34
60 59 60 62 58 58 59 57 52 49 45 41 39 40 40 39 39 39 40 40 39 36 35 35 37 37 41 42 37 35 34 34
57 56 49 55 58 55 54 53 46 44 42 41 40 39 38 37 37 36 36 35 36 36 35 36 37 41 39 39 40 40 40 39
54 54 57 55 57 57 54 50 43 41 40 39 37 36 35 34 34 34 33 34 36 36 36 37 39 41 39 40 40 44 44 44
56 59 58 55 57 59 56 46 42 40 39 36 35 34 33 33 33 35 36 36 37 37 37 41 41 40 38 39 39 46 46 45
MSLP
997.29 997.87 998.96 1000.03 1001.23 1002.91 1004.26 1005.33 1006.53 1007.31 1008.07 1008.95 1009.54 1009.93 1010.71 1010.92 1011.54 1011.97 1012.86 1013.19 1013.92 1014.08 1014.52 1015.21 1015.95 1016.30 1016.75 1017.38 1018.29 1018.80 1019.05 1020.23
997.35 997.41 997.89 999.15 1000.56 1002.28 1003.55 1004.66 1005.83 1006.91 1007.61 1008.27 1008.89 1009.36 1010.26 1010.76 1011.15 1011.50 1012.23 1012.50 1013.21 1013.52 1013.76 1014.76 1015.33 1015.53 1016.02 1017.07 1017.97 1018.94 1019.23 1019.61
996.10 997.04 997.45 998.60 999.80 1001.30 1002.83 1004.05 1005.14 1006.21 1007.06 1007.49 1008.04 1008.12 1008.96 1009.51 1010.32 1011.00 1011.84 1012.06 1012.77 1013.06 1013.20 1014.02 1014.32 1015.11 1015.79 1016.58 1017.21 1018.37 1019.31 1019.65
997.01 997.44 998.45 999.18 999.84 1000.59 1002.30 1003.45 1004.42 1005.40 1006.20 1007.11 1007.44 1007.84 1008.39 1008.49 1009.10 1010.19 1011.10 1011.78 1012.35 1012.52 1012.71 1013.52 1014.00 1014.43 1015.29 1015.91 1016.95 1017.54 1018.77 1018.84
998.40 998.49 998.97 999.55 999.73 1000.42 1001.52 1002.74 1003.77 1004.74 1005.48 1006.09 1006.37 1006.64 1006.83 1007.01 1007.77 1008.84 1009.82 1010.91 1011.73 1012.28 1012.86 1013.23 1013.87 1014.02 1014.50 1015.55 1016.59 1017.11 1017.86 1018.40
999.43 999.59 999.67 999.66 999.64 999.93 1000.68 1001.81 1003.30 1004.22 1004.94 1005.62 1005.61 1005.82 1006.09 1006.32 1006.96 1008.06 1009.10 1010.34 1011.11 1011.81 1012.63 1013.04 1013.98 1013.90 1014.44 1014.96 1015.74 1016.63 1017.03 1017.45
1000.12 1000.57 1000.91 1000.74 1000.49 1000.49 1000.30 1001.04 1002.71 1003.83 1004.55 1005.13 1005.18 1005.32 1005.65 1005.99 1006.35 1007.01 1008.02 1009.22 1010.24 1011.04 1011.76 1012.49 1013.19 1013.91 1014.00 1014.51 1015.25 1016.04 1016.68 1017.08
1001.25 1001.40 1001.54 1001.41 1001.49 1001.37 1001.15 1001.43 1002.06 1003.68 1004.39 1004.90 1005.24 1005.45 1005.65 1005.44 1005.73 1006.41 1007.39 1008.26 1008.95 1009.95 1010.90 1011.59 1012.48 1013.01 1013.92 1014.28 1014.70 1015.65 1016.27 1016.67
1001.46 1001.61 1001.54 1001.39 1001.34 1001.24 1001.44 1001.64 1002.36 1003.39 1004.07 1004.62 1005.04 1005.54 1005.76 1005.75 1005.82 1006.18 1007.08 1008.02 1008.55 1009.42 1010.14 1011.04 1011.83 1012.48 1013.39 1014.15 1014.53 1014.96 1015.74 1016.43
1001.26 1001.44 1001.42 1001.08 1001.09 1001.37 1001.36 1001.50 1001.82 1002.66 1003.54 1004.34 1004.90 1005.32 1005.54 1005.80 1006.16 1006.57 1007.33 1007.72 1008.31 1009.29 1009.95 1010.73 1011.74 1012.51 1013.14 1013.97 1014.63 1014.94 1015.28 1016.98
1001.69 1001.67 1001.28 1000.87 1000.48 1000.60 1000.68 1001.03 1001.36 1001.67 1002.46 1003.53 1004.40 1004.96 1005.41 1005.88 1006.32 1006.80 1007.39 1008.14 1008.31 1009.01 1010.11 1010.63 1011.65 1012.65 1013.39 1014.25 1014.81 1015.00 1015.33 1017.03
1001.31 1000.97 1000.63 999.88 999.41 999.46 999.85 1000.18 1000.77 1001.00 1001.74 1002.56 1003.80 1004.62 1005.34 1005.90 1006.41 1006.85 1007.22 1007.95 1008.57 1008.96 1010.26 1010.88 1011.97 1012.75 1013.43 1013.98 1014.85 1015.10 1015.53 1016.78
1000.46 999.96 999.19 998.24 998.06 997.97 998.10 998.43 998.87 1000.64 1001.22 1002.16 1003.30 1004.32 1005.02 1005.77 1006.50 1006.94 1007.47 1007.86 1008.18 1009.65 1010.22 1010.95 1012.33 1013.05 1013.77 1014.22 1014.30 1015.41 1016.05 1016.94
999.93 999.01 997.85 997.34 997.07 997.43 997.87 998.37 998.69 1000.53 1001.46 1002.09 1003.10 1004.13 1004.99 1005.40 1006.11 1006.87 1007.85 1008.46 1008.58 1009.69 1010.61 1011.50 1012.48 1013.72 1014.26 1014.42 1015.43 1015.95 1016.31 1017.78
998.77 998.00 997.49 996.90 996.96 997.35 997.93 998.43 999.47 1000.77 1001.89 1002.33 1003.31 1003.95 1004.78 1005.46 1006.17 1006.94 1007.62 1008.81 1009.27 1010.00 1011.04 1012.51 1013.48 1014.13 1014.38 1015.14 1016.60 1016.76 1017.66 1019.25
998.90 999.15 998.46 997.66 997.71 998.09 998.31 999.13 1000.39 1001.50 1002.01 1002.52 1003.08 1003.90 1004.92 1005.64 1006.17 1007.04 1008.07 1008.99 1009.96 1009.83 1011.99 1013.15 1014.10 1014.23 1015.60 1016.40 1016.94 1017.70 1019.44 1019.17
999.90 999.89 1000.02 998.96 998.61 999.01 999.49 1000.23 1000.80 1001.32 1001.61 1002.28 1003.14 1003.97 1005.02 1005.79 1006.35 1007.43 1008.38 1009.11 1009.85 1010.83 1012.43 1013.33 1013.99 1015.53 1015.88 1016.59 1017.29 1018.45 1018.48 1018.70
1000.33 1000.08 999.71 999.55 999.44 999.31 999.16 1000.00 1001.34 1001.94 1002.23 1002.72 1003.44 1004.28 1005.06 1005.70 1006.53 1007.60 1008.36 1009.30 1010.21 1011.24 1012.66 1013.62 1014.55 1015.77 1015.94 1016.48 1016.92 1017.31 1017.56 1018.32
1000.14 999.78 999.67 999.78 999.36 998.74 998.98 1000.56 1001.51 1002.02 1002.46 1003.08 1003.86 1004.44 1005.24 1006.01 1006.73 1007.68 1008.44 1009.40 1010.36 1011.52 1012.65 1013.53 1014.46 1015.54 1015.88 1016.36 1016.48 1016.80 1017.35 1018.25
Wind_Speed
16 13 14 15 15 17 17 15 16 14 10 8 6 6 7 7 7 9 13 11 11 9 10 11 9 8 10 10 11 11 10 8
18 17 14 14 15 17 14 15 16 11 10 10 9 11 10 10 11 13 14 12 13 13 10 12 12 12 12 12 12 12 9 11
12 6 12 13 16 19 17 16 16 15 11 10 7 12 13 12 12 13 14 15 14 12 12 13 13 11 13 14 13 11 11 11
9 5 5 8 13 15 16 18 16 18 17 10 7 7 8 11 13 13 14 17 15 13 13 13 12 11 11 13 13 14 10 13
7 2 6 8 9 12 17 17 17 16 19 14 18 13 14 11 12 13 15 18 17 16 13 13 13 10 14 12 12 12 12 11
7 8 10 12 12 10 13 17 16 15 16 16 15 16 12 12 12 17 16 16 17 17 13 13 12 10 11 15 15 13 10 11
16 13 12 12 11 11 10 12 16 14 15 17 18 19 15 12 15 15 14 13 13 17 17 14 13 11 13 12 13 15 11 11
10 14 12 10 10 9 8 12 11 13 14 16 15 16 15 17 17 15 16 14 14 16 17 15 12 12 12 12 13 13 12 11
11 14 15 16 16 12 9 10 9 10 12 15 14 14 10 9 13 12 12 12 13 16 15 14 14 14 11 11 10 10 11 9
17 19 20 15 12 13 12 12 12 11 14 12 13 14 12 10 11 12 9 12 12 16 15 16 15 13 13 11 8 9 10 7
25 26 25 22 15 12 13 13 15 13 12 13 11 13 11 11 11 13 13 10 13 16 15 15 15 14 14 12 10 8 9 5
23 23 24 24 21 15 11 16 15 14 13 13 12 10 11 10 10 11 12 11 12 14 13 15 13 14 12 11 11 9 10 9
22 25 24 22 20 22 18 17 16 10 11 12 12 11 11 11 10 10 10 13 14 13 13 16 13 12 10 11 13 10 11 9
23 23 19 17 14 14 15 6 15 9 12 11 11 12 12 13 14 13 12 12 15 13 11 13 14 10 8 7 9 11 10 6
20 17 17 14 13 7 13 8 3 7 9 10 11 13 13 13 15 15 17 12 12 12 12 10 6 8 8 9 7 11 11 7
16 20 19 15 16 14 8 2 3 8 10 11 13 13 13 14 15 15 15 16 13 16 12 10 10 11 7 12 11 12 10 11
12 14 15 16 11 4 1 5 5 6 9 10 11 13 14 14 14 14 14 14 14 15 13 13 13 9 14 16 16 12 12 14
8 9 9 10 12 10 7 5 6 6 7 10 12 13 13 14 14 13 13 13 14 14 14 13 14 12 17 18 17 12 14 14
10 10 10 10 13 12 4 8 8 8 9 11 11 13 12 13 13 13 13 13 14 14 14 14 13 12 18 17 13 15 13 14
Wind_Direction
256 228 222 211 194 191 182 178 178 174 161 164 152 149 175 161 167 172 165 176 175 191 174 169 171 176 166 167 164 150 143 138
260 251 203 195 195 182 190 173 175 171 170 167 169 172 175 181 182 179 176 173 177 185 177 168 190 178 170 166 161 160 144 132
247 270 233 198 207 180 185 186 179 182 183 181 186 185 187 189 181 180 183 182 182 182 181 178 183 173 174 170 161 165 155 150
289 190 227 219 215 194 194 199 190 192 196 181 190 174 193 183 184 184 188 186 185 190 183 182 182 170 169 168 172 169 168 176
322 88 190 212 233 218 199 210 200 197 201 187 186 188 188 193 185 181 183 184 186 192 183 182 185 173 169 172 168 178 169 190
351 332 324 321 323 228 219 198 210 201 197 202 192 193 193 188 180 179 180 184 184 186 183 179 180 180 172 177 171 186 190 191
349 354 340 328 320 308 287 218 210 205 201 205 203 198 189 183 188 180 179 177 179 183 184 181 183 188 177 181 171 181 193 198
332 333 339 333 337 319 298 277 210 200 203 203 207 208 200 193 185 183 177 176 178 180 182 180 179 184 179 182 174 185 191 202
313 308 309 317 321 314 288 255 256 195 196 206 204 210 214 204 191 175 182 188 179 169 175 173 175 178 171 179 174 176 180 195
313 317 317 290 263 279 281 264 234 218 199 203 213 208 198 193 185 182 179 184 173 171 175 168 170 172 162 170 168 175 156 205
310 303 293 284 271 259 251 243 242 221 198 193 204 206 193 185 177 181 179 186 176 167 167 163 160 162 165 167 155 144 137 183
295 300 292 278 271 259 246 248 251 238 199 181 190 194 188 180 178 170 174 173 165 161 160 158 153 163 159 148 151 143 133 172
306 295 290 280 268 261 236 225 219 228 214 180 183 176 168 161 159 156 150 154 150 154 162 149 151 149 155 151 136 144 154 157
294 287 293 292 287 270 257 251 253 206 206 171 167 170 167 163 150 147 152 157 147 136 137 144 143 142 124 103 135 145 140 117
289 310 319 302 279 266 278 269 234 198 193 169 160 164 167 152 151 142 140 126 115 106 110 86 100 104 106 112 146 101 94 93
358 338 326 353 13 344 299 298 162 200 193 177 172 167 162 156 149 144 141 143 131 112 105 107 114 106 130 131 114 107 133 111
353 7 346 344 345 333 289 220 212 208 184 171 160 157 153 150 145 138 135 124 124 119 128 131 127 169 152 144 143 154 140 128
351 314 330 317 323 307 290 183 145 159 149 146 147 142 147 141 134 135 134 134 136 134 142 149 162 152 148 151 160 146 140 141
341 355 346 325 313 332 80 139 164 171 163 147 144 139 136 134 133 139 138 137 140 143 151 165 140 152 152 159 165 146 138 143